Weather History for KJMR - December, 2012

Change the Weather History Date:

Thursday, December 6, 2012

  Actual Average Record
Temperature  
Mean Temperature 29 °F -  
Max Temperature 37 °F 25 °F 58 °F (1939)
Min Temperature 21 °F 3 °F -20 °F (1984)
Degree Days  
Heating Degree Days 36    
Moisture  
Dew Point 26 °F    
Average Humidity 74    
Maximum Humidity 87    
Minimum Humidity 56    
Precipitation  
Precipitation 0.00 in - - ()
Sea Level Pressure  
Sea Level Pressure 29.84 in    
Wind  
Wind Speed 9 mph (WSW)    
Max Wind Speed 15 mph    
Max Gust Speed 20 mph    
Visibility 10 miles    
Events Rain    
Averages and records for this station are not official NWS values.
T = Trace of Precipitation, MM = Missing Value Source: NWS Daily Summary

Daily Weather History Graph

Daily Weather History Graph

Search for Another Location

Airport or City:

Trip Planner

Search our weather history database for the weather conditions in past years. The results will help you decide how hot, cold, wet, or windy it might be!

Date:

Astronomy

Dec. 06, 2012 Rise Set
Actual Time 7:40 AM CST 4:28 PM CST
Civil Twilight 7:06 AM CST 5:02 PM CST
Nautical Twilight 6:28 AM CST 5:40 PM CST
Astronomical Twilight 5:52 AM CST 6:16 PM CST
Moon No Moon Rise 12:14 PM CST (12/6)
Length of Visible Light 9h 56m
Length of Day
8h 48m
Waning Gibbous, 49% of the Moon is Illuminated
Dec 6
Waning Gibbous
Dec 13
New
Dec 19
First Quarter
Dec 28
Full
Jan 4
Last Quarter

Hourly Weather History & Observations

Time (CST) Temp. Windchill Dew Point Humidity Pressure Visibility Wind Dir Wind Speed Gust Speed Precip Events Conditions
12:02 AM 35.6 °F 28.0 °F 21.2 °F 56% 29.85 in 10.0 mi South 10.4 mph 16.1 mph N/A   Mostly Cloudy
12:22 AM 35.6 °F 27.5 °F 21.2 °F 56% 29.84 in 10.0 mi South 11.5 mph 17.3 mph N/A   Scattered Clouds
12:42 AM 35.6 °F 27.5 °F 21.2 °F 56% 29.83 in 10.0 mi South 11.5 mph 16.1 mph N/A   Mostly Cloudy
1:02 AM 35.6 °F 28.6 °F 23.0 °F 60% 29.82 in 10.0 mi South 9.2 mph - N/A   Overcast
1:21 AM 35.6 °F 29.2 °F 23.0 °F 60% 29.81 in 10.0 mi South 8.1 mph - N/A   Overcast
1:42 AM 35.6 °F 28.6 °F 23.0 °F 60% 29.81 in 10.0 mi South 9.2 mph - N/A   Overcast
2:01 AM 35.6 °F 29.2 °F 23.0 °F 60% 29.80 in 10.0 mi South 8.1 mph - N/A   Overcast
2:22 AM 35.6 °F 28.6 °F 24.8 °F 65% 29.80 in 10.0 mi South 9.2 mph - N/A   Scattered Clouds
2:42 AM 37.4 °F 30.8 °F 24.8 °F 60% 29.80 in 10.0 mi South 9.2 mph - N/A   Scattered Clouds
3:02 AM 37.4 °F 30.8 °F 26.6 °F 65% 29.80 in 10.0 mi South 9.2 mph - N/A   Scattered Clouds
3:22 AM 37.4 °F 31.4 °F 26.6 °F 65% 29.79 in 10.0 mi South 8.1 mph - N/A   Scattered Clouds
3:41 AM 37.4 °F 32.1 °F 26.6 °F 65% 29.79 in 10.0 mi South 6.9 mph - N/A   Drizzle
4:01 AM 37.4 °F 30.8 °F 26.6 °F 65% 29.77 in 10.0 mi SSE 9.2 mph - N/A   Mostly Cloudy
4:22 AM 37.4 °F 31.4 °F 26.6 °F 65% 29.76 in 10.0 mi South 8.1 mph - N/A   Scattered Clouds
4:41 AM 37.4 °F 31.4 °F 28.4 °F 70% 29.76 in 10.0 mi South 8.1 mph - N/A   Scattered Clouds
5:02 AM 37.4 °F 30.8 °F 28.4 °F 70% 29.75 in 10.0 mi South 9.2 mph - N/A Rain Rain
5:22 AM 35.6 °F 29.9 °F 30.2 °F 81% 29.76 in 10.0 mi South 6.9 mph - N/A Rain Light Rain
5:41 AM 35.6 °F 29.2 °F 30.2 °F 81% 29.74 in 10.0 mi SSE 8.1 mph - N/A Rain Light Rain
6:22 AM 35.6 °F 30.7 °F 32.0 °F 87% 29.75 in 10.0 mi SSW 5.8 mph - N/A   Mostly Cloudy
6:41 AM 35.6 °F 29.9 °F 32.0 °F 87% 29.73 in 10.0 mi South 6.9 mph - N/A   Mostly Cloudy
7:02 AM 35.6 °F 29.9 °F 32.0 °F 87% 29.72 in 10.0 mi South 6.9 mph - N/A   Scattered Clouds
7:21 AM 35.6 °F 30.7 °F 32.0 °F 87% 29.73 in 10.0 mi SSW 5.8 mph - N/A   Clear
7:42 AM 35.6 °F 30.7 °F 32.0 °F 87% 29.74 in 10.0 mi SW 5.8 mph - N/A   Clear
8:01 AM 35.6 °F 32.8 °F 32.0 °F 87% 29.75 in 10.0 mi WSW 3.5 mph - N/A   Clear
8:22 AM 35.6 °F 29.2 °F 32.0 °F 87% 29.75 in 10.0 mi SW 8.1 mph - N/A   Clear
8:42 AM 35.6 °F 30.7 °F 32.0 °F 87% 29.76 in 10.0 mi WSW 5.8 mph - N/A   Clear
9:02 AM 35.6 °F 29.2 °F 32.0 °F 87% 29.76 in 10.0 mi WSW 8.1 mph - N/A   Clear
9:22 AM 35.6 °F 29.9 °F 32.0 °F 87% 29.77 in 10.0 mi WNW 6.9 mph - N/A   Clear
9:42 AM 37.4 °F 29.8 °F 30.2 °F 75% 29.77 in 10.0 mi WNW 11.5 mph 17.3 mph N/A   Clear
10:02 AM 37.4 °F 29.8 °F 30.2 °F 75% 29.79 in 10.0 mi WNW 11.5 mph 18.4 mph N/A   Clear
10:22 AM 35.6 °F 26.2 °F 30.2 °F 81% 29.80 in 10.0 mi NW 15.0 mph 19.6 mph N/A   Mostly Cloudy
10:42 AM 35.6 °F 28.6 °F 28.4 °F 75% 29.81 in 10.0 mi NW 9.2 mph - N/A   Overcast
11:02 AM 35.6 °F 28.0 °F 28.4 °F 75% 29.82 in 10.0 mi West 10.4 mph - N/A   Overcast
11:22 AM 35.6 °F 27.1 °F 28.4 °F 75% 29.82 in 10.0 mi West 12.7 mph 17.3 mph N/A   Overcast
11:42 AM 35.6 °F 28.0 °F 28.4 °F 75% 29.82 in 10.0 mi West 10.4 mph - N/A   Overcast
12:02 PM 35.6 °F 27.5 °F 28.4 °F 75% 29.82 in 10.0 mi WNW 11.5 mph - N/A   Overcast
12:22 PM 35.6 °F 28.6 °F 28.4 °F 75% 29.81 in 10.0 mi West 9.2 mph - N/A   Mostly Cloudy
12:42 PM 35.6 °F 29.9 °F 28.4 °F 75% 29.82 in 10.0 mi West 6.9 mph - N/A   Mostly Cloudy
1:02 PM 35.6 °F 28.6 °F 28.4 °F 75% 29.82 in 10.0 mi WNW 9.2 mph - N/A   Overcast
1:22 PM 37.4 °F 29.8 °F 28.4 °F 70% 29.83 in 10.0 mi WNW 11.5 mph 17.3 mph N/A   Mostly Cloudy
1:42 PM 37.4 °F 29.8 °F 28.4 °F 70% 29.83 in 10.0 mi WNW 11.5 mph 17.3 mph N/A   Scattered Clouds
2:02 PM 37.4 °F 32.1 °F 26.6 °F 65% 29.83 in 10.0 mi NW 6.9 mph - N/A   Clear
2:22 PM 37.4 °F 30.8 °F 26.6 °F 65% 29.84 in 10.0 mi WNW 9.2 mph - N/A   Clear
2:42 PM 37.4 °F 31.4 °F 26.6 °F 65% 29.84 in 10.0 mi WNW 8.1 mph 17.3 mph N/A   Clear
3:02 PM 35.6 °F 27.1 °F 26.6 °F 70% 29.85 in 10.0 mi West 12.7 mph - N/A   Scattered Clouds
3:22 PM 35.6 °F 28.6 °F 26.6 °F 70% 29.86 in 10.0 mi West 9.2 mph - N/A   Scattered Clouds
3:42 PM 35.6 °F 28.6 °F 26.6 °F 70% 29.87 in 10.0 mi West 9.2 mph - N/A   Scattered Clouds
4:02 PM 33.8 °F 27.7 °F 23.0 °F 65% 29.87 in 10.0 mi WNW 6.9 mph - N/A   Clear
4:22 PM 33.8 °F 27.7 °F 24.8 °F 70% 29.88 in 10.0 mi West 6.9 mph - N/A   Clear
4:42 PM 33.8 °F 27.7 °F 24.8 °F 70% 29.89 in 10.0 mi NW 6.9 mph - N/A   Clear
5:02 PM 32.0 °F 25.6 °F 24.8 °F 75% 29.90 in 10.0 mi WNW 6.9 mph - N/A   Clear
5:22 PM 32.0 °F 22.5 °F 23.0 °F 69% 29.90 in 10.0 mi NW 12.7 mph 18.4 mph N/A   Clear
5:42 PM 32.0 °F 24.2 °F 23.0 °F 69% 29.91 in 10.0 mi WNW 9.2 mph 18.4 mph N/A   Clear
6:02 PM 32.0 °F 24.8 °F 23.0 °F 69% 29.92 in 10.0 mi WNW 8.1 mph 16.1 mph N/A   Clear
6:21 PM 30.2 °F 22.6 °F 23.0 °F 75% 29.92 in 10.0 mi NW 8.1 mph - N/A   Clear
6:42 PM 30.2 °F 24.3 °F 23.0 °F 75% 29.93 in 10.0 mi WNW 5.8 mph - N/A   Clear
7:02 PM 30.2 °F 24.3 °F 23.0 °F 75% 29.93 in 10.0 mi West 5.8 mph - N/A   Clear
7:22 PM 30.2 °F 24.3 °F 23.0 °F 75% 29.95 in 10.0 mi West 5.8 mph - N/A   Clear
7:42 PM 28.4 °F 22.2 °F 21.2 °F 74% 29.96 in 10.0 mi West 5.8 mph - N/A   Clear
8:02 PM 26.6 °F 20.0 °F 21.2 °F 80% 29.97 in 10.0 mi WNW 5.8 mph - N/A   Clear
8:41 PM 26.6 °F 21.2 °F 21.2 °F 80% 29.97 in 10.0 mi West 4.6 mph - N/A   Clear
9:02 PM 26.6 °F 20.0 °F 21.2 °F 80% 29.97 in 10.0 mi WNW 5.8 mph - N/A   Clear
9:22 PM 26.6 °F 20.0 °F 21.2 °F 80% 29.97 in 10.0 mi WNW 5.8 mph - N/A   Clear
9:41 PM 24.8 °F 17.9 °F 19.4 °F 80% 29.97 in 10.0 mi West 5.8 mph - N/A   Clear
10:02 PM 24.8 °F 19.1 °F 19.4 °F 80% 29.97 in 10.0 mi WNW 4.6 mph - N/A   Clear
10:22 PM 24.8 °F 19.1 °F 19.4 °F 80% 29.97 in 10.0 mi WNW 4.6 mph - N/A   Clear
10:42 PM 24.8 °F 19.1 °F 19.4 °F 80% 29.98 in 10.0 mi WNW 4.6 mph - N/A   Clear
11:02 PM 21.2 °F 14.9 °F 17.6 °F 86% 29.99 in 10.0 mi WNW 4.6 mph - N/A   Clear
11:22 PM 21.2 °F 14.9 °F 17.6 °F 86% 29.99 in 10.0 mi West 4.6 mph - N/A   Clear
11:42 PM 21.2 °F 12.6 °F 17.6 °F 86% 29.97 in 10.0 mi NW 6.9 mph - N/A   Clear